Theta_e
319 314 314 315 313 313 314 315 315 315 314 313 315 316 316 316 314 313 312 313 312 312 313 313 315 314 314 316 316 313 316 317 315 315 314 312 312 308 304 303 302 302 301 301 299
320 318 315 316 316 315 315 316 316 316 315 313 316 314 316 314 317 314 313 312 312 312 313 312 311 312 313 316 314 314 315 316 313 312 313 312 311 308 306 304 302 300 299 298 298
319 320 318 317 317 317 317 318 318 317 317 314 316 314 314 313 316 314 314 312 312 313 313 312 312 313 315 315 314 313 314 314 314 312 312 311 311 309 305 307 302 301 298 296 297
315 319 320 318 318 318 318 319 319 319 319 315 316 314 314 316 319 315 314 312 312 313 313 313 311 313 314 315 315 314 314 314 312 311 311 311 309 307 306 306 301 298 297 295 295
313 316 319 319 318 318 318 319 319 319 319 316 316 315 315 316 314 314 313 312 311 313 312 312 311 311 313 314 313 314 314 313 311 310 310 309 310 306 302 300 298 297 296 295 294
312 313 316 319 318 318 318 318 318 318 319 315 316 315 318 317 314 313 311 313 311 312 311 310 311 311 312 315 313 313 313 311 312 311 310 309 308 307 302 299 298 297 296 295 295
311 312 314 317 317 317 318 318 317 318 318 314 316 316 317 316 313 311 311 312 310 310 312 310 310 312 312 313 312 311 312 311 311 310 311 307 308 308 302 298 298 297 296 295 295
310 311 312 316 316 317 317 317 316 318 318 314 316 317 317 313 313 311 310 312 310 310 310 309 310 310 311 311 312 312 311 312 312 310 310 307 310 306 301 300 298 296 294 295 294
310 310 311 314 316 316 317 316 317 317 315 314 318 316 317 313 315 314 311 310 310 310 309 309 311 311 310 311 310 310 312 311 309 309 310 307 308 305 299 300 297 293 293 293 291
311 309 310 313 316 315 316 317 317 317 315 315 315 315 312 315 315 314 311 310 309 310 312 312 308 309 308 309 316 312 308 306 307 309 309 308 308 304 301 298 297 293 292 291 290
312 310 309 312 316 314 315 317 312 312 312 314 312 314 314 316 314 312 309 309 310 312 315 312 313 315 313 308 309 308 307 306 306 309 309 308 309 304 303 297 294 292 291 290 290
315 311 309 311 316 313 310 307 310 310 310 310 310 313 314 314 311 310 309 310 312 315 312 311 314 313 311 308 308 308 309 308 307 307 307 307 306 305 302 300 297 294 290 289 290
316 315 311 312 316 310 308 307 309 311 309 310 312 314 315 311 311 311 307 309 313 314 312 314 314 307 309 308 308 308 310 308 308 306 304 304 304 306 302 299 294 293 291 289 289
316 316 316 314 312 309 313 307 309 311 307 309 312 314 309 309 310 308 306 309 312 314 311 309 308 308 308 308 308 308 306 306 306 305 305 303 306 304 298 299 295 293 289 289 289
316 315 316 318 308 309 311 307 308 310 305 309 315 309 308 309 309 310 307 308 313 312 312 313 306 307 307 307 307 307 304 304 305 304 304 303 303 303 298 299 296 294 290 288 288
315 315 315 316 310 309 306 306 309 309 310 313 313 311 310 309 309 309 309 306 306 307 306 309 305 305 306 307 306 305 305 304 302 301 304 303 303 302 297 299 298 295 289 289 288
315 314 314 316 310 308 306 308 306 308 308 314 316 312 312 311 310 309 310 308 313 315 313 309 307 305 306 307 306 306 303 308 308 304 310 299 301 308 301 297 297 295 290 288 287
314 314 313 315 314 309 310 309 310 306 310 313 313 312 313 311 312 310 309 311 308 310 307 311 312 305 304 305 307 305 303 309 310 310 314 301 304 304 295 293 295 294 290 288 287
315 314 313 314 315 313 301 309 313 310 310 313 313 313 312 313 314 309 307 307 309 306 312 309 309 300 300 301 302 303 302 301 303 286 295 300 299 299 292 291 289 289 289 288 287
315 313 312 314 314 308 302 312 311 309 312 312 312 313 314 314 312 308 308 306 309 305 307 309 310 301 297 298 298 301 299 302 300 308 306 303 302 306 293 291 289 289 289 287 287
314 312 311 313 311 307 314 312 310 311 311 312 313 313 312 313 310 307 310 309 306 304 303 302 307 303 297 298 302 296 298 297 299 307 309 309 313 298 296 294 290 290 289 288 288
312 312 309 310 313 305 313 309 308 310 310 311 311 311 312 311 309 309 311 311 303 301 305 302 302 305 300 298 295 299 300 300 304 306 303 305 311 295 296 295 292 290 289 287 287
311 307 308 308 314 313 309 311 310 309 310 311 311 311 310 310 312 311 311 307 301 303 302 300 302 304 307 300 294 295 294 299 298 299 306 305 311 294 293 291 291 289 288 287 287
310 311 310 308 310 310 311 312 312 309 309 309 310 309 310 311 311 312 310 302 300 302 305 303 302 308 313 311 300 297 293 294 300 304 306 306 306 305 296 292 289 288 287 287 286
310 310 308 310 311 312 311 311 311 312 309 309 310 310 311 312 311 311 309 300 298 300 300 300 304 302 307 308 303 305 307 296 298 301 305 308 308 307 306 300 290 289 287 286 286
315 313 306 305 308 310 311 312 311 309 310 312 311 310 310 311 310 310 311 303 306 296 295 296 304 302 304 304 302 304 305 304 304 304 304 304 304 304 303 294 289 288 287 288 287
314 311 311 311 307 310 310 311 311 310 310 310 311 311 310 311 310 310 306 306 307 302 296 297 300 304 310 305 303 305 305 304 305 304 304 304 304 303 300 291 289 287 288 288 286
Wind_Speed
19 21 22 24 24 24 24 24 24 24 20 16 9 6 8 9 10 11 8 7 9 10 9 10 6 7 1 2 3 3 4 1 1 4 3 0 3 4 3 7 5 4 4 12 14
17 19 21 23 23 24 24 24 23 24 20 16 11 3 4 4 4 9 8 9 8 9 6 10 6 9 3 1 2 4 3 3 1 3 3 1 4 8 5 3 5 6 10 17 20
16 17 19 21 23 23 23 24 23 24 22 16 13 1 4 2 2 3 9 9 8 7 6 6 6 1 3 3 2 2 3 3 1 2 3 3 2 2 14 3 7 11 9 9 18
15 16 18 19 21 22 23 23 23 23 24 17 11 2 5 3 1 1 6 7 8 7 6 4 5 4 3 3 3 3 1 3 5 2 3 5 3 5 1 2 12 13 15 10 10
13 15 17 19 20 21 22 23 23 25 23 16 9 2 3 2 4 1 3 5 5 3 8 4 5 3 2 4 5 1 3 2 4 5 5 5 2 7 4 7 11 16 10 9 10
12 14 16 18 20 20 21 21 23 25 20 13 6 3 2 2 4 1 2 1 6 6 5 5 3 2 1 2 0 2 3 6 3 4 5 6 3 1 7 7 10 10 10 9 11
14 15 15 18 20 21 21 21 23 25 15 9 4 3 2 3 4 1 1 3 4 4 1 1 2 2 2 2 2 3 5 5 4 5 4 8 1 9 11 11 13 10 9 8 10
14 15 16 17 19 21 21 21 23 20 13 5 1 2 2 4 5 0 2 2 1 2 1 2 2 3 3 1 3 2 2 2 3 5 2 5 9 5 15 16 12 9 8 8 7
13 15 16 17 19 21 21 21 22 13 3 5 2 2 3 4 3 4 1 1 3 1 2 1 1 3 4 3 4 4 4 5 6 8 3 6 6 4 9 12 11 9 8 8 7
13 14 15 16 18 21 21 21 12 4 1 1 1 3 2 3 2 3 3 2 0 2 1 2 4 3 4 3 3 5 5 6 6 3 4 6 14 6 13 10 14 9 9 8 8
14 13 13 15 16 19 19 9 7 4 6 3 2 3 1 2 4 3 1 0 1 3 2 3 3 5 8 6 4 3 5 7 5 5 4 10 17 12 16 8 9 9 9 9 9
15 14 14 13 14 13 9 5 3 1 8 2 3 3 4 2 2 3 1 5 4 3 1 6 3 4 3 3 4 5 6 8 9 4 5 10 12 9 16 20 20 17 11 10 6
15 17 13 12 12 4 5 3 1 2 2 5 3 2 2 5 4 5 1 3 3 4 4 5 2 6 3 3 4 4 5 6 8 4 5 8 7 18 3 8 7 9 10 8 10
15 16 12 11 4 2 1 1 2 1 4 5 3 2 3 2 2 0 1 1 1 6 4 6 1 4 5 5 7 6 2 5 4 4 3 4 8 4 6 15 12 14 10 10 9
15 13 10 8 8 2 2 2 2 2 3 4 3 3 3 5 5 2 0 2 5 5 4 7 6 5 6 6 7 7 1 4 3 4 3 6 5 6 4 10 15 16 14 10 9
15 11 9 7 6 4 2 3 2 4 7 3 4 5 4 4 3 3 1 3 2 3 2 6 0 5 6 2 1 2 4 4 3 3 2 7 9 5 6 11 9 15 12 12 9
15 13 11 8 3 3 3 2 3 5 3 5 6 5 4 6 4 6 6 5 6 1 4 1 4 1 2 2 2 3 4 4 4 2 7 3 4 16 8 7 11 22 17 12 10
16 15 14 13 5 5 3 4 7 7 7 2 3 3 7 7 5 5 4 4 5 3 2 4 7 8 5 5 6 5 7 4 6 4 14 4 8 6 5 8 7 12 14 10 9
17 16 17 19 14 9 3 6 11 8 7 9 3 4 5 4 3 5 8 7 8 10 8 7 7 2 0 1 4 4 5 1 1 2 3 5 7 6 4 2 7 12 12 11 9
16 8 16 11 15 9 2 18 8 8 6 5 12 11 9 7 7 8 8 6 6 11 3 4 6 2 2 0 1 4 4 3 1 3 7 6 9 12 8 11 9 12 14 11 9
13 3 8 26 18 2 11 9 9 8 5 8 9 7 8 8 9 7 7 4 7 5 5 6 5 2 4 8 10 2 3 3 2 4 4 4 14 6 16 18 19 18 16 12 12
6 4 10 33 6 4 15 7 6 7 10 7 5 10 12 10 7 8 13 12 11 10 10 7 5 6 13 1 2 2 9 11 5 6 5 3 17 5 11 12 19 17 14 10 8
3 4 15 11 9 13 5 7 13 7 13 10 10 9 6 8 6 11 14 3 12 12 12 9 4 2 7 2 3 6 6 8 0 0 14 6 13 2 3 7 14 15 12 10 8
4 4 4 6 9 9 13 14 13 10 21 7 7 6 5 9 14 7 5 4 4 4 7 13 6 9 16 12 6 6 8 11 18 13 17 26 37 28 11 7 6 7 9 9 8
6 7 8 8 17 21 14 8 23 15 8 19 14 20 11 12 14 14 7 1 1 4 5 7 10 8 21 16 3 16 21 13 23 26 20 40 33 31 24 13 16 18 12 9 7
10 7 3 2 7 26 27 34 28 11 12 18 23 18 23 24 22 15 22 7 9 3 7 3 7 6 15 9 12 22 26 23 27 31 28 37 39 41 26 5 7 14 14 11 8
22 10 10 16 12 15 30 33 31 22 18 22 22 20 22 30 28 25 6 6 9 15 12 9 5 5 19 3 2 15 25 27 23 24 22 23 38 31 15 8 11 14 16 13 10
Wind_Direction
19 18 18 18 17 16 18 22 21 19 20 22 30 99 99 76 47 64 42 350 350 358 348 348 31 353 330 12 31 102 60 13 281 147 180 278 104 37 356 85 52 15 95 119 100
17 13 12 12 12 11 11 12 15 13 13 13 13 163 136 45 12 47 13 13 6 7 8 11 349 353 1 342 20 83 104 210 318 136 159 67 124 149 90 62 69 85 89 103 89
10 9 7 6 6 5 4 4 5 5 4 7 7 41 213 255 24 328 4 15 11 355 350 333 315 312 20 15 359 152 167 164 15 124 170 134 84 100 129 212 194 163 144 126 103
1 1 2 1 0 0 359 356 355 357 355 356 5 88 126 136 196 289 352 12 14 3 15 17 13 25 31 333 346 355 286 128 187 235 142 150 144 77 249 165 137 148 149 136 113
353 353 353 354 354 354 353 351 348 348 346 346 357 173 161 68 224 224 335 9 13 14 38 38 52 356 7 327 347 173 326 69 158 161 122 124 195 150 116 133 125 137 136 132 132
343 346 346 348 348 348 346 345 341 341 338 339 344 189 152 213 160 125 328 269 19 32 30 39 118 145 217 302 8 326 320 295 275 176 161 127 198 102 209 163 140 143 152 155 145
333 338 341 342 342 342 340 338 336 334 329 330 328 209 140 218 176 70 71 140 48 35 92 85 118 146 155 333 323 340 333 326 242 189 221 120 296 229 159 172 168 170 164 155 148
327 331 335 338 338 337 335 332 330 325 319 321 297 183 212 163 179 267 37 147 24 22 41 92 94 104 124 260 18 34 54 351 272 167 227 132 258 224 173 168 180 172 170 164 172
321 325 330 333 335 334 331 328 320 322 312 301 168 146 254 167 206 231 315 225 308 130 63 70 74 90 33 72 5 3 245 225 304 206 143 187 264 221 176 182 181 186 178 171 162
315 316 323 328 331 333 331 325 310 315 2 117 145 50 162 210 191 228 223 271 101 100 55 50 49 61 30 73 259 247 276 264 233 240 212 249 262 194 195 191 193 188 185 176 169
307 309 316 322 329 334 338 339 11 344 35 233 236 263 112 289 256 214 191 255 56 35 38 342 68 247 247 209 206 219 238 235 246 237 220 235 245 212 199 204 199 198 192 182 181
303 308 309 317 325 333 341 68 93 279 303 334 236 264 250 224 285 197 309 171 154 199 51 6 231 219 173 234 246 233 264 265 286 249 184 271 250 239 185 212 203 190 191 184 185
293 303 306 313 320 331 57 111 145 341 284 298 224 201 189 162 215 199 253 159 157 160 189 176 253 123 178 236 255 228 213 251 239 339 289 288 248 244 205 222 179 189 190 183 182
281 297 314 314 292 337 130 99 152 125 44 261 246 234 141 170 255 287 16 161 194 196 186 229 208 181 220 234 174 278 216 260 286 1 254 343 294 260 194 224 200 187 192 186 185
272 290 309 328 301 259 157 141 144 115 349 248 192 150 148 165 136 221 29 53 196 185 131 254 175 188 218 227 164 238 9 267 262 256 348 235 251 245 150 239 211 196 192 189 191
268 274 297 298 281 240 201 146 118 55 247 236 143 179 153 185 197 118 167 54 63 162 258 246 277 183 210 142 151 36 326 294 53 113 231 232 197 222 192 219 197 197 189 189 183
250 257 270 279 267 218 174 111 38 175 280 220 205 178 182 188 202 179 179 184 191 242 248 326 219 39 153 131 28 88 55 311 330 343 239 168 224 261 241 229 198 194 182 186 180
244 242 246 247 267 248 170 58 204 219 228 79 147 121 184 159 225 171 155 237 233 128 121 212 300 177 181 199 183 177 172 177 266 244 295 319 245 253 289 296 219 175 168 172 179
243 239 249 245 242 224 91 216 194 192 201 160 85 172 228 221 201 154 202 204 210 171 187 178 263 116 100 168 158 179 186 168 237 100 11 239 280 284 78 57 118 151 167 184 189
218 234 237 229 211 163 156 230 215 202 153 149 186 182 191 203 177 183 188 202 214 189 147 213 288 215 170 163 342 164 157 76 339 283 271 257 270 247 200 206 184 185 193 196 197
203 234 204 203 163 178 221 223 217 243 183 177 205 212 201 184 196 196 215 237 200 161 148 144 173 180 117 208 183 141 212 204 208 159 235 299 280 213 195 204 191 201 195 191 195
199 232 187 165 182 219 228 196 221 213 219 257 209 208 192 183 206 212 212 206 163 156 168 196 168 204 211 231 305 207 202 178 187 219 222 240 261 199 202 202 195 202 192 190 188
214 206 179 193 213 216 242 243 233 194 202 219 230 195 185 195 245 209 234 212 156 159 172 178 209 323 317 6 347 221 208 213 320 301 230 237 269 219 162 161 195 188 182 185 184
156 220 188 214 232 226 216 233 223 208 234 208 208 166 156 225 220 255 220 218 220 223 147 149 187 184 240 236 135 212 194 206 216 236 255 239 264 259 244 195 186 190 183 185 184
190 214 192 207 217 223 223 235 224 222 209 206 236 221 193 229 222 230 213 159 335 212 181 171 231 195 248 261 183 265 255 194 220 236 237 262 263 265 267 232 202 198 182 176 182
200 205 188 231 195 208 219 232 232 224 182 216 223 206 216 228 213 225 223 177 198 165 173 195 249 157 266 218 232 257 260 243 243 248 248 254 266 267 279 230 146 179 174 178 187
220 232 210 217 200 197 221 230 234 222 234 229 221 226 228 227 228 237 198 191 202 179 184 166 179 146 256 114 29 275 248 235 246 243 231 244 245 263 257 188 179 174 176 178 180